Location: Newark
(40.7066°N, 111.8219°W)
Time: 01:54:47
(UTC+00:00)

Courier 1B Rocket - All Passes

Search period start: 14 November 2019 00:00
Search period end: 24 November 2019 00:00
Orbit: 920 x 1202 km, 28.2° (Epoch: 12 November)

Date Brightness Start Highest point End Pass type
(mag) Time Alt. Az. Time Alt. Az. Time Alt. Az.
14 Nov - 01:45:26 10° SW 01:52:03 31° S 01:58:44 10° ESE visible
14 Nov - 03:38:29 10° WSW 03:45:02 30° S 03:51:29 10° SE visible
14 Nov - 05:33:05 10° WSW 05:37:45 17° SSW 05:42:20 10° SSE visible
14 Nov - 22:54:09 10° S 22:58:22 16° SSE 23:02:42 10° ESE daylight
15 Nov - 00:44:43 10° SW 00:51:02 29° S 00:57:31 10° ESE visible
15 Nov - 02:37:20 10° WSW 02:44:00 32° S 02:50:42 10° SE visible
15 Nov - 04:31:12 10° WSW 04:36:51 22° SSW 04:42:25 10° SSE visible
15 Nov - 21:55:41 10° SSE 21:57:35 11° SSE 21:59:29 10° SE daylight
15 Nov - 23:44:14 10° SW 23:50:05 25° SSE 23:56:06 10° ESE daylight
16 Nov - 01:36:19 10° WSW 01:42:57 32° S 01:49:42 10° ESE visible
16 Nov - 03:29:42 10° WSW 03:35:54 26° SSW 03:42:04 10° SE visible
16 Nov - 05:25:29 10° SW 05:28:31 13° SSW 05:31:31 10° S visible
16 Nov - 22:44:05 10° SSW 22:49:10 20° SSE 22:54:27 10° ESE daylight
17 Nov - 00:35:30 10° SW 00:41:55 31° S 00:48:35 10° ESE visible
17 Nov - 02:28:26 10° WSW 02:34:53 29° S 02:41:24 10° SE visible
17 Nov - 04:22:55 10° WSW 04:27:39 17° SSW 04:32:21 10° SSE visible
17 Nov - 21:44:28 10° S 21:48:21 15° SSE 21:52:22 10° ESE daylight
17 Nov - 23:34:52 10° SW 23:40:57 28° S 23:47:17 10° ESE daylight
18 Nov - 01:27:21 10° WSW 01:33:52 31° S 01:40:32 10° SE visible
18 Nov - 03:21:07 10° WSW 03:26:44 22° SSW 03:32:22 10° SSE visible
18 Nov - 20:46:32 10° SSE 20:47:37 10° SSE 20:48:43 10° SE daylight
18 Nov - 22:34:29 10° SW 22:40:02 24° SSE 22:45:50 10° ESE daylight
19 Nov - 00:26:27 10° WSW 00:32:51 32° S 00:39:29 10° ESE visible
19 Nov - 02:19:42 10° WSW 02:25:45 26° SSW 02:31:55 10° SE visible
19 Nov - 04:15:24 10° SW 04:18:25 13° SSW 04:21:26 10° S visible
19 Nov - 21:34:25 10° SSW 21:39:11 19° SSE 21:44:09 10° ESE daylight
19 Nov - 23:25:43 10° SW 23:31:51 30° S 23:38:19 10° ESE daylight
20 Nov - 01:18:32 10° WSW 01:24:46 29° S 01:31:12 10° SE visible
20 Nov - 03:12:55 10° WSW 03:17:32 17° SSW 03:22:12 10° SSE visible
20 Nov - 20:34:56 10° S 20:38:25 15° SSE 20:42:02 10° SE daylight
20 Nov - 22:25:10 10° SW 22:30:56 27° S 22:37:00 10° ESE daylight
21 Nov - 00:17:33 10° WSW 00:23:46 30° S 00:30:17 10° SE daylight
21 Nov - 02:11:12 10° WSW 02:16:36 21° SSW 02:22:08 10° SSE visible
21 Nov - 21:24:52 10° SW 21:30:04 23° SSE 21:35:33 10° ESE daylight
21 Nov - 23:16:44 10° WSW 23:22:48 31° S 23:29:13 10° ESE daylight
22 Nov - 01:09:52 10° WSW 01:15:40 25° SSW 01:21:39 10° SE visible
22 Nov - 03:05:36 10° SW 03:08:20 12° SSW 03:11:04 10° S visible
22 Nov - 20:24:53 10° SSW 20:29:17 19° SSE 20:33:53 10° ESE daylight
22 Nov - 22:16:05 10° SW 22:21:52 29° S 22:28:02 10° ESE daylight
23 Nov - 00:08:47 10° WSW 00:14:42 28° S 00:20:54 10° SE daylight
23 Nov - 02:03:07 10° WSW 02:07:27 16° SSW 02:11:52 10° SSE visible
23 Nov - 19:25:28 10° S 19:28:35 14° SSE 19:31:45 10° SE daylight
23 Nov - 21:15:36 10° SW 21:21:01 26° S 21:26:44 10° ESE daylight
23 Nov - 23:07:54 10° WSW 23:13:46 29° S 23:19:59 10° SE daylight
